This demonstration page uses our WeatherBlox Daily Observations layout. Learn more.

Left ArrowRight Arrow

39.01783, -85.05884

Hourly Observations for November 20, 2020

Temp ( °F °C ) Dew Point ( °F °C ) Humidity (%) Winds ( mph kmh ) Pressure ( in mb ) Visibility ( mi km ) Precip ( " mm )
12:52 am 00:52 Mostly Cloudy 56 13.3 26 -3.3 32 32 SSW 16 26 30.25 1024 10 16.0934 0 0
1:52 am 01:52 Partly Cloudy 54 12.2 26 -3.3 34 34 SSW 14 22 30.26 1025 10 16.0934 0 0
2:52 am 02:52 Partly Cloudy 53 11.7 26 -3.3 35 35 SW 15 24 30.28 1025 10 16.0934 0 0
3:52 am 03:52 Mostly Clear 52 11.1 26 -3.3 37 37 SSW 10 17 30.29 1026 10 16.0934 0 0
4:52 am 04:52 Clear 50 10 26 -3.3 39 39 SSW 13 20 30.3 1026 10 16.0934 0 0
5:52 am 05:52 Clear 50 10 25 -3.9 38 38 SSW 14 22 30.32 1027 10 16.0934 0 0
6:52 am 06:52 Clear 50 10 25 -3.9 38 38 SSW 14 22 30.32 1027 10 16.0934 0 0
7:52 am 07:52 Sunny 50 10 26 -3.3 39 39 SSW 14 22 30.33 1027 10 16.0934 0 0
8:52 am 08:52 Sunny 52 11.1 28 -2.2 40 40 SSW 17 28 30.35 1028 10 16.0934 0 0
9:52 am 09:52 Partly Cloudy 55 12.8 32 0 42 42 SSW 20 31 30.35 1028 10 16.0934 0 0
10:52 am 10:52 Mostly Cloudy 58 14.4 36 2.2 44 44 SW 17 28 30.35 1028 10 16.0934 0 0
11:52 am 11:52 Cloudy 59 15 38 3.3 46 46 SW 13 20 30.35 1028 10 16.0934 0 0
12:52 pm 12:52 Cloudy 61 16.1 41 5 48 48 SW 9 15 30.33 1027 10 16.0934 0 0
1:52 pm 13:52 Cloudy 62 16.7 44 6.7 52 52 SW 13 20 30.32 1027 10 16.0934 0 0
2:52 pm 14:52 Cloudy 62 16.7 44 6.7 52 52 SSW 14 22 30.31 1026 10 16.0934 0 0
3:52 pm 15:52 Cloudy 62 16.7 45 7.2 54 54 SW 10 17 30.32 1027 10 16.0934 0 0
4:52 pm 16:52 Cloudy 61 16.1 46 7.8 58 58 SSW 5 7 30.33 1027 10 16.0934 0 0
5:52 pm 17:52 Cloudy 60 15.6 46 7.8 60 60 WSW 5 7 30.35 1028 10 16.0934 0 0
6:52 pm 18:52 Cloudy 60 15.6 46 7.8 60 60 WSW 5 7 30.36 1028 10 16.0934 0 0
7:52 pm 19:52 Cloudy 59 15 47 8.3 64 64 SW 3 6 30.36 1028 10 16.0934 0 0
8:52 pm 20:52 Cloudy 59 15 47 8.3 64 64 WSW 3 6 30.37 1028 10 16.0934 0 0
9:42 pm 21:42 Cloudy with Light Rain 56 13.3 51 10.6 84 84 W 6 9 30.39 1029 9 14.48406 0.01 0.254
9:52 pm 21:52 Cloudy with Light Rain 55 12.8 51 10.6 87 87 WSW 5 7 30.39 1029 7 11.26538 0.01 0.254
10:52 pm 22:52 Cloudy with Light Rain 54 12.2 52 11.1 93 93 WNW 7 11 30.38 1029 4 6.43736 0.02 0.508
11:17 pm 23:17 Cloudy with Light Rain 54 12.2 53 11.7 97 97 W 6 9 30.38 1029 3 4.82802 0.01 0.254
11:52 pm 23:52 Cloudy with Light Rain 55 12.8 53 11.7 93 93 NW 8 13 30.37 1029 4 6.43736 0.01 0.254

Powered by AerisWeather